Precipitable_Water
1.13 1.16 1.27 1.19 1.19 1.26 1.32 1.34 1.43 1.54 1.61 1.59 1.67 1.76 1.81 1.88 1.88 1.86 1.96 2.05 1.98 1.90 1.90 1.93 2.08 2.09 2.06 2.05 2.05 1.97 1.93 1.88 1.86
1.10 1.15 1.20 1.14 1.21 1.30 1.36 1.41 1.52 1.63 1.63 1.63 1.71 1.83 1.91 1.96 2.00 2.04 2.02 2.09 2.09 2.10 2.09 2.00 1.92 1.95 2.00 2.05 1.99 1.86 1.79 1.81 1.76
1.14 1.13 1.15 1.17 1.25 1.36 1.49 1.56 1.54 1.68 1.74 1.66 1.72 1.77 1.84 1.90 2.03 2.00 2.05 2.15 2.01 1.98 2.07 2.11 2.10 1.93 1.84 1.85 1.92 1.98 1.94 1.80 1.72
1.16 1.09 1.09 1.11 1.25 1.31 1.34 1.39 1.48 1.50 1.50 1.46 1.43 1.55 1.60 1.52 1.49 1.52 1.58 1.66 1.71 1.65 1.67 1.73 1.86 1.96 1.96 1.82 1.77 1.76 1.78 1.83 1.83
1.13 1.09 1.05 1.06 1.08 1.15 1.17 1.22 1.43 1.57 1.64 1.59 1.47 1.42 1.49 1.53 1.51 1.46 1.30 1.23 1.23 1.38 1.43 1.48 1.54 1.67 1.90 2.01 2.00 2.04 1.95 1.82 1.78
1.05 1.03 1.03 1.08 1.12 1.05 1.09 1.24 1.41 1.56 1.68 1.60 1.56 1.55 1.51 1.41 1.30 1.23 1.17 1.11 1.11 1.08 1.05 1.11 1.25 1.37 1.42 1.56 1.78 1.92 1.93 1.92 1.91
1.11 1.13 1.06 1.09 1.23 1.28 1.35 1.41 1.49 1.64 1.71 1.70 1.64 1.51 1.31 1.22 1.26 1.26 1.26 1.25 1.20 1.14 1.07 1.01 1.02 1.02 1.05 1.20 1.31 1.38 1.42 1.49 1.63
1.14 1.21 1.23 1.14 1.20 1.33 1.49 1.50 1.37 1.51 1.61 1.66 1.59 1.40 1.20 1.27 1.34 1.34 1.27 1.23 1.20 1.17 1.12 1.08 1.04 0.98 0.98 0.99 1.03 1.03 1.01 1.03 1.05
1.09 1.23 1.29 1.30 1.33 1.46 1.62 1.71 1.53 1.47 1.56 1.61 1.58 1.40 1.27 1.35 1.36 1.33 1.26 1.21 1.16 1.13 1.09 1.04 1.00 0.94 0.95 0.94 0.97 0.99 0.97 0.97 0.95
1.06 1.16 1.32 1.38 1.46 1.57 1.69 1.75 1.56 1.58 1.51 1.60 1.53 1.40 1.38 1.36 1.34 1.27 1.27 1.20 1.14 1.07 1.00 0.96 0.92 0.94 0.95 0.95 1.00 1.01 0.98 0.97 0.94
1.08 1.16 1.31 1.46 1.58 1.71 1.87 1.81 1.81 1.79 1.80 1.68 1.54 1.43 1.35 1.37 1.36 1.28 1.28 1.20 1.13 1.08 1.01 0.90 0.84 0.82 0.84 0.90 0.97 0.99 1.00 1.00 0.99
1.09 1.20 1.35 1.53 1.66 1.73 1.90 1.83 1.56 1.70 1.82 1.72 1.58 1.38 1.33 1.37 1.38 1.30 1.21 1.06 1.03 1.01 0.91 0.86 0.85 0.87 0.85 0.88 0.89 0.95 0.98 0.97 0.95
1.18 1.33 1.40 1.44 1.59 1.67 1.67 1.75 1.71 1.75 1.69 1.63 1.50 1.42 1.37 1.38 1.34 1.23 1.09 1.08 1.01 0.92 0.87 0.88 0.91 0.90 0.95 0.95 0.91 0.95 0.96 0.95 0.91
1.24 1.35 1.41 1.47 1.54 1.58 1.58 1.62 1.68 1.68 1.63 1.49 1.53 1.51 1.48 1.42 1.30 1.17 1.13 1.06 0.97 0.90 0.90 0.91 0.89 0.88 0.92 0.90 0.90 0.89 0.90 0.89 0.87
1.31 1.34 1.43 1.45 1.39 1.34 1.44 1.57 1.71 1.68 1.65 1.71 1.68 1.62 1.53 1.39 1.27 1.19 1.06 0.92 0.88 0.85 0.85 0.83 0.85 0.87 0.89 0.93 0.91 0.91 0.90 0.89 0.89
1.40 1.42 1.34 1.45 1.37 1.40 1.51 1.63 1.71 1.64 1.70 1.74 1.67 1.54 1.38 1.25 1.14 1.01 0.94 0.86 0.82 0.80 0.79 0.76 0.76 0.77 0.79 0.79 0.82 0.81 0.81 0.80 0.80
1.38 1.39 1.41 1.42 1.36 1.39 1.45 1.57 1.64 1.66 1.68 1.67 1.49 1.26 1.08 0.99 0.92 0.87 0.86 0.84 0.82 0.79 0.75 0.75 0.73 0.67 0.61 0.63 0.66 0.69 0.74 0.75 0.77
1.32 1.35 1.34 1.38 1.40 1.42 1.43 1.54 1.57 1.61 1.55 1.41 1.16 0.98 0.93 0.90 0.89 0.87 0.81 0.81 0.81 0.78 0.79 0.77 0.72 0.68 0.61 0.56 0.53 0.59 0.68 0.68 0.66
1.32 1.33 1.36 1.35 1.39 1.43 1.48 1.53 1.50 1.47 1.41 1.17 0.97 0.88 0.86 0.87 0.86 0.83 0.81 0.78 0.75 0.83 0.84 0.84 0.82 0.77 0.72 0.68 0.64 0.59 0.62 0.67 0.69
1.21 1.24 1.27 1.31 1.37 1.46 1.48 1.47 1.44 1.32 1.12 1.01 0.94 0.85 0.85 0.85 0.85 0.81 0.76 0.76 0.73 0.70 0.80 0.84 0.81 0.77 0.74 0.70 0.62 0.58 0.57 0.65 0.66
Wind_Speed
10 8 8 8 10 11 12 12 12 12 12 12 11 11 9 8 6 5 3 3 3 2 2 2 3 5 7 8 9 10 10 10 10
13 12 11 12 11 12 12 12 12 12 11 11 11 10 8 7 6 5 5 5 3 5 4 3 3 4 5 7 8 9 9 10 11
18 14 13 13 12 13 13 13 12 12 11 10 10 9 8 7 6 4 3 5 4 4 4 4 4 6 5 5 6 8 9 9 10
20 17 15 14 13 15 14 13 13 11 11 9 9 8 7 5 4 3 3 3 4 4 5 5 5 6 7 7 7 7 8 9 9
19 17 16 14 15 15 15 14 13 12 11 11 8 7 7 5 3 2 0 1 2 2 4 5 5 7 8 9 9 9 9 10 10
14 16 16 16 15 15 15 16 14 13 13 12 9 9 7 5 3 2 1 1 2 2 3 3 4 5 8 9 10 11 12 12 13
12 13 17 18 18 17 15 15 13 14 15 13 11 10 8 5 3 2 1 2 3 4 4 5 6 7 7 8 10 10 11 13 14
12 13 15 19 20 20 19 17 15 17 15 14 13 11 9 7 5 4 4 5 6 7 7 8 8 9 10 10 11 12 13 14 15
14 13 15 18 21 21 22 21 19 19 20 17 15 13 11 9 7 7 7 8 9 9 10 10 10 11 11 12 12 13 14 15 16
16 17 17 19 22 25 24 24 13 13 18 18 16 15 12 11 10 9 9 10 11 12 12 13 13 14 14 14 15 15 16 17 18
15 17 18 18 20 23 25 21 19 15 18 16 14 15 13 11 11 11 12 13 14 14 15 16 16 16 17 17 17 17 18 18 19
15 16 16 17 18 21 21 26 25 22 18 18 16 15 14 13 12 13 13 14 15 16 16 16 16 16 16 15 16 16 17 18 19
11 11 13 15 17 18 19 24 17 22 20 18 16 16 15 14 14 14 15 15 16 16 16 16 16 15 15 15 16 17 18 20 21
10 11 13 13 13 16 14 14 19 19 18 17 17 17 16 15 15 15 16 17 17 17 16 16 16 16 16 17 18 19 20 21 21
13 13 12 12 12 12 15 16 18 17 16 16 15 15 16 16 16 17 17 17 18 18 18 18 19 19 18 19 19 20 21 23 24
17 15 15 15 13 12 14 15 18 17 16 16 15 15 16 16 16 17 17 18 18 18 18 18 18 18 19 19 21 22 23 23 23
15 15 14 14 13 14 14 15 16 15 15 15 15 16 16 17 17 17 18 18 19 19 18 19 19 19 20 21 21 22 23 24 24
13 13 12 13 13 14 15 15 15 15 15 15 16 17 17 18 18 19 19 20 20 20 20 20 20 20 20 21 22 23 24 24 24
13 14 15 15 15 16 16 17 16 17 17 17 17 18 18 18 19 19 20 20 20 20 21 20 20 21 22 22 23 23 24 23 24
15 15 15 16 17 17 18 18 18 17 18 18 18 18 18 19 19 20 20 20 21 21 21 21 21 22 22 22 23 23 23 22 22
Wind_Direction
219 209 201 191 180 174 172 170 170 170 169 171 173 177 182 187 193 206 222 239 233 225 207 195 194 203 207 211 214 217 220 223 224
215 210 201 193 186 181 176 175 175 172 174 178 182 187 193 198 207 234 241 247 240 226 220 215 204 204 206 212 214 217 220 225 229
209 205 200 193 190 185 181 179 179 181 183 188 190 196 201 211 225 237 265 237 249 250 238 237 233 221 213 212 214 218 224 231 235
201 201 197 193 192 187 184 182 178 174 176 175 181 185 189 195 208 233 257 263 255 257 252 253 246 230 229 228 227 229 233 236 238
195 196 197 198 194 191 189 187 189 191 188 189 185 179 179 176 174 171 212 326 306 297 261 258 249 244 241 240 240 244 246 246 247
194 201 201 201 199 198 197 198 203 200 194 189 184 177 172 166 160 152 115 17 347 325 303 285 273 259 252 251 252 252 254 256 255
203 209 204 206 209 207 204 202 201 202 190 192 189 188 186 184 191 211 271 309 321 319 308 292 282 273 266 262 259 260 263 263 262
210 216 214 214 213 213 212 208 202 196 199 199 198 200 201 207 225 250 277 298 307 308 304 299 289 280 274 271 268 268 268 268 268
219 226 227 224 218 217 217 213 216 222 208 206 205 205 210 222 239 261 279 291 297 299 300 298 292 286 281 276 273 275 274 272 271
233 232 235 233 228 221 215 214 216 197 204 209 209 211 221 233 248 263 275 286 294 297 297 295 291 286 282 280 278 279 278 276 274
238 240 236 235 231 231 216 216 233 226 222 220 218 218 226 239 253 265 275 284 289 292 294 294 290 286 283 280 280 280 279 278 277
251 243 234 232 236 237 231 227 240 228 221 220 224 225 231 244 257 268 277 284 289 292 293 293 292 290 286 283 283 284 284 282 281
230 236 230 234 239 245 247 233 221 216 216 223 226 228 238 250 260 268 275 282 288 291 292 291 291 291 287 281 283 287 287 287 285
245 235 235 239 239 239 236 210 210 215 219 225 227 233 244 255 263 268 275 281 286 289 289 289 289 288 286 286 287 289 290 291 289
237 234 241 238 252 247 222 217 213 216 222 225 230 238 249 258 264 270 276 280 285 287 287 287 287 285 286 286 288 291 292 292 292
241 240 254 242 240 229 223 217 217 220 224 229 236 245 253 259 266 272 277 282 284 287 289 288 286 286 286 287 289 292 295 295 295
237 238 243 229 224 220 218 215 216 223 229 239 244 249 255 261 266 273 278 282 284 284 285 286 285 286 287 288 290 293 295 294 294
237 227 224 218 219 217 216 219 225 231 238 244 249 253 258 264 269 273 278 281 282 282 284 283 284 286 287 290 292 294 294 295 296
231 228 227 227 225 223 226 231 235 240 243 247 251 257 263 268 271 276 278 279 280 283 283 284 285 287 290 293 293 295 295 296 298
236 234 231 228 228 230 234 237 235 240 246 251 257 262 265 269 272 276 279 280 280 281 283 283 285 287 291 293 295 296 298 296 298